Home > Weather > Oceanside > Past weeks

Flag for U.S.A. Weather for the Past 2 Weeks in Oceanside, California, U.S.A.

Now
80 °F

Sunny.


Feels Like: 78 °F
Forecast: 51 / 79 °F
Wind: 8 mph from West

Location: Oceanside Weather Reporting Station

Current Time: Feb 11, 2016 at 4:20:57 PM

Latest Report: Feb 11, 2016 at 2:52 PM


Visibility: 10 mi

Pressure: 30.03 "Hg

Humidity: 17%

Dew point: 31 °F

Location of OceansideLocation

Historic Weather in Oceanside — Graph

°F

Oceanside Temperature Yesterday

Maximum temperature yesterday: 82 °F (at 10:52 AM)
Minimum temperature yesterday: 44 °F (at 2:52 AM)
Average temperature yesterday: 62 °F

High & Low Weather Summary for the Past Weeks

 TemperatureHumidityPressure
High85 °F (Feb 8, 11:52 AM)93% (Jan 28, 8:52 PM)30.36 "Hg (Jan 28, 8:52 PM)
Low32 °F (Feb 2, 3:52 AM)13% (Feb 5, 10:52 AM)29.69 "Hg (Jan 31, 2:00 PM)
Average55 °F53%30.12 "Hg
* Reported Jan 27 1:52 PM — Feb 11 1:52 PM, Oceanside, Weather by CustomWeather, © 2016

Note: Actual official high and low records may vary slightly from our data, if they occured in-between our weather recording intervals... More about our weather records

Advertising

Oceanside Weather History for the Previous 24 Hours

 ConditionsComfort  
Time TempWeatherWind HumidityBarometerVisibility
1:52 PM
Thu, Feb 11
79 °FSunny.8 mph20%30.04 "Hg8 mi
12:52 PM77 °FSunny.12 mph26%30.06 "Hg8 mi
11:52 AM77 °FSunny.9 mph24%30.09 "Hg10 mi
10:52 AM80 °FSunny.No wind17%30.10 "Hg10 mi
9:52 AM73 °FSunny.No wind24%30.11 "Hg10 mi
8:52 AM66 °FSunny.5 mph29%30.10 "Hg10 mi
7:52 AM57 °FSunny.5 mph41%30.09 "Hg10 mi
6:52 AM47 °FSunny.No wind54%30.08 "Hg10 mi
5:52 AM49 °FClear.No wind52%30.06 "Hg10 mi
4:52 AM49 °FClear.No wind55%30.06 "Hg10 mi
3:52 AM49 °FClear.No wind57%30.06 "Hg10 mi
2:52 AM48 °FClear.6 mph61%30.07 "Hg10 mi
1:52 AM45 °FClear.5 mph71%30.08 "Hg10 mi
12:52 AM48 °FClear.No wind63%30.09 "Hg10 mi
11:52 PM
Wed, Feb 10
47 °FClear.3 mph66%30.09 "Hg10 mi
10:52 PM49 °FClear.No wind61%30.09 "Hg10 mi
9:52 PM50 °FClear.No wind59%30.09 "Hg10 mi
8:52 PM52 °FClear.No wind49%30.09 "Hg10 mi
7:52 PM55 °FClear.No wind42%30.08 "Hg10 mi
6:52 PM65 °FClear.No wind29%30.07 "Hg10 mi
5:52 PM71 °FClear.No wind23%30.06 "Hg10 mi
4:52 PM76 °FSunny.6 mph20%30.05 "Hg10 mi
Weather by CustomWeather, © 2016

See weather overviewHow to use our weather pages